This demonstration page uses our WeatherBlox Daily Observations layout. Learn more.

Left ArrowRight Arrow

Hourly Observations for May 16, 2015

Temp ( °F °C ) Dew Point ( °F °C ) Humidity (%) Winds ( mph kmh ) Pressure ( in mb ) Visibility ( mi km ) Precip ( " mm )
12:16 am 00:16 Clear 66 19 N/A N/A S 3 6 30.09 1019 10 16.0934 N/A
12:36 am 00:36 Clear 66 19 N/A N/A Calm 30.09 1019 10 16.0934 N/A
12:56 am 00:56 Clear 66 19 N/A N/A S 3 6 30.09 1019 10 16.0934 N/A
1:16 am 01:16 Clear 66 19 N/A N/A SSE 5 7 30.09 1019 10 16.0934 N/A
1:36 am 01:36 Clear 66 19 N/A N/A S 7 11 30.09 1019 10 16.0934 N/A
1:56 am 01:56 Partly Cloudy 66 19 N/A N/A S 9 15 30.09 1019 10 16.0934 N/A
2:16 am 02:16 Cloudy 66 19 N/A N/A SW 13 20 30.09 1019 2 3.21868 N/A
2:36 am 02:36 Cloudy 64 18 N/A N/A SW 9 15 30.09 1019 5 8.0467 N/A
2:56 am 02:56 Mostly Cloudy 66 19 N/A N/A SSW 6 9 30.06 1018 10 16.0934 N/A
3:16 am 03:16 Clear 66 19 N/A N/A SW 6 9 30.06 1018 10 16.0934 N/A
3:36 am 03:36 Clear 66 19 N/A N/A WSW 8 13 30.06 1018 10 16.0934 N/A
3:56 am 03:56 Clear 66 19 N/A N/A S 7 11 30.06 1018 10 16.0934 N/A
4:16 am 04:16 Clear 64 18 N/A N/A S 5 7 30.06 1018 10 16.0934 N/A
4:36 am 04:36 Clear 64 18 N/A N/A S 5 7 30.06 1018 10 16.0934 N/A
4:56 am 04:56 Clear 64 18 N/A N/A S 6 9 30.06 1018 7 11.26538 N/A
5:16 am 05:16 Partly Cloudy 64 18 N/A N/A S 6 9 30.06 1018 5 8.0467 N/A
5:36 am 05:36 Partly Cloudy 64 18 N/A N/A S 8 13 30.09 1019 5 8.0467 N/A
5:56 am 05:56 Mostly Cloudy 64 18 N/A N/A S 9 15 30.09 1019 5 8.0467 N/A
6:16 am 06:16 Cloudy 64 18 N/A N/A S 9 15 30.09 1019 5 8.0467 N/A
6:36 am 06:36 Mostly Cloudy 64 18 N/A N/A S 8 13 30.09 1019 7 11.26538 N/A
6:56 am 06:56 Cloudy 64 18 N/A N/A S 6 9 30.09 1019 5 8.0467 N/A
7:16 am 07:16 Mostly Cloudy 64 18 N/A N/A S 7 11 30.09 1019 5 8.0467 N/A
7:36 am 07:36 Cloudy 64 18 N/A N/A S 7 11 30.09 1019 7 11.26538 N/A
7:56 am 07:56 Mostly Cloudy 66 19 N/A N/A S 7 11 30.09 1019 10 16.0934 N/A
8:16 am 08:16 Partly Cloudy 66 19 N/A N/A S 8 13 30.09 1019 10 16.0934 N/A
8:36 am 08:36 Mostly Cloudy 66 19 N/A N/A S 9 15 30.12 1020 10 16.0934 N/A
8:56 am 08:56 Cloudy 66 19 N/A N/A S 9 15 30.12 1020 10 16.0934 N/A
9:15 am 09:15 Mostly Cloudy 68 20 N/A N/A S 10 17 30.12 1020 10 16.0934 N/A
9:36 am 09:36 Partly Cloudy 68 20 N/A N/A SSW 9 15 30.12 1020 10 16.0934 N/A
9:56 am 09:56 Mostly Cloudy 66 19 N/A N/A SSW 9 15 30.12 1020 7 11.26538 N/A
10:16 am 10:16 Cloudy 68 20 N/A N/A S 9 15 30.12 1020 10 16.0934 N/A
10:36 am 10:36 Cloudy 68 20 N/A N/A SSW 9 15 30.12 1020 10 16.0934 N/A
10:56 am 10:56 Cloudy 68 20 N/A N/A SW 12 19 30.12 1020 10 16.0934 N/A
11:16 am 11:16 Cloudy 70 21 N/A N/A SSW 9 15 30.12 1020 10 16.0934 N/A
11:36 am 11:36 Cloudy 70 21 N/A N/A SSW 9 15 30.12 1020 10 16.0934 N/A
11:56 am 11:56 Cloudy 70 21 N/A N/A SW 10 17 30.12 1020 10 16.0934 N/A
12:16 pm 12:16 Cloudy 70 21 N/A N/A SSW 8 13 30.12 1020 10 16.0934 N/A
12:36 pm 12:36 Cloudy 72 22 N/A N/A SW 9 15 30.09 1019 10 16.0934 N/A
12:57 pm 12:57 Cloudy 72 22 N/A N/A SW 10 17 30.09 1019 10 16.0934 N/A
1:16 pm 13:16 Cloudy 72 22 72 22 100 100 SW 12 19 30.09 1019 7 11.26538 N/A
1:36 pm 13:36 Mostly Cloudy 70 21 N/A N/A SSW 12 19 30.12 1020 10 16.0934 N/A
1:56 pm 13:56 Cloudy 68 20 N/A N/A SW 9 15 30.12 1020 2.5 4.02335 N/A
2:16 pm 14:16 Cloudy 68 20 N/A N/A SW 8 13 30.12 1020 4 6.43736 N/A
2:36 pm 14:36 Cloudy 70 21 N/A N/A SW 7 11 30.09 1019 5 8.0467 N/A
2:56 pm 14:56 Cloudy 70 21 N/A N/A SW 9 15 30.09 1019 3 4.82802 N/A
3:16 pm 15:16 Cloudy 70 21 N/A N/A SSW 8 13 30.09 1019 4 6.43736 N/A
3:36 pm 15:36 Cloudy 70 21 N/A N/A S 6 9 30.09 1019 5 8.0467 N/A
3:56 pm 15:56 Mostly Cloudy 72 22 N/A N/A SSW 6 9 30.06 1018 7 11.26538 N/A
4:16 pm 16:16 Mostly Cloudy 72 22 N/A N/A S 6 9 30.06 1018 7 11.26538 N/A
4:36 pm 16:36 Mostly Cloudy 72 22 N/A N/A SSW 8 13 30.03 1017 7 11.26538 N/A
4:56 pm 16:56 Mostly Cloudy 72 22 N/A N/A S 7 11 30.03 1017 7 11.26538 N/A
5:16 pm 17:16 Mostly Cloudy 72 22 N/A N/A SSE 7 11 30.06 1018 7 11.26538 N/A
5:36 pm 17:36 Partly Cloudy 72 22 N/A N/A SSE 7 11 30.06 1018 10 16.0934 N/A
5:56 pm 17:56 Mostly Cloudy 70 21 N/A N/A SSE 9 15 30.09 1019 5 8.0467 N/A
6:16 pm 18:16 Cloudy 70 21 N/A N/A S 8 13 30.09 1019 7 11.26538 N/A
6:36 pm 18:36 Cloudy 70 21 N/A N/A S 8 13 30.09 1019 5 8.0467 N/A
6:56 pm 18:56 Cloudy 70 21 N/A N/A S 6 9 30.06 1018 7 11.26538 N/A
7:16 pm 19:16 Cloudy 70 21 N/A N/A S 7 11 30.06 1018 7 11.26538 N/A
7:36 pm 19:36 Cloudy 68 20 N/A N/A SSE 8 13 30.06 1018 7 11.26538 N/A
7:56 pm 19:56 Cloudy 68 20 N/A N/A S 7 11 30.06 1018 7 11.26538 N/A
8:16 pm 20:16 Cloudy 68 20 N/A N/A S 6 9 30.06 1018 7 11.26538 N/A
8:37 pm 20:37 Cloudy 68 20 N/A N/A S 9 15 30.06 1018 7 11.26538 N/A
8:56 pm 20:56 Cloudy 68 20 N/A N/A S 8 13 30.09 1019 7 11.26538 N/A
9:16 pm 21:16 Cloudy 68 20 N/A N/A S 9 15 30.09 1019 10 16.0934 N/A
9:36 pm 21:36 Cloudy 68 20 N/A N/A S 8 13 30.09 1019 10 16.0934 N/A
9:56 pm 21:56 Cloudy 68 20 N/A N/A S 6 9 30.09 1019 10 16.0934 N/A
10:16 pm 22:16 Mostly Cloudy 68 20 N/A N/A S 6 9 30.09 1019 10 16.0934 N/A
10:36 pm 22:36 Cloudy 68 20 N/A N/A S 3 6 30.12 1020 10 16.0934 N/A
10:56 pm 22:56 Mostly Cloudy 66 19 N/A N/A S 3 6 30.09 1019 10 16.0934 N/A
11:16 pm 23:16 Partly Cloudy 66 19 N/A N/A S 3 6 30.09 1019 10 16.0934 N/A
11:36 pm 23:36 Mostly Cloudy 66 19 N/A N/A SSE 3 6 30.09 1019 10 16.0934 N/A
11:56 pm 23:56 Cloudy 66 19 N/A N/A S 6 9 30.09 1019 10 16.0934 N/A

Powered by AerisWeather